カタログに戻る

FENGYUN 1C DEB

運用中PO
NORAD 30804·DEBRIS·🇨🇳 China

打ち上げ May 10, 1999 から Taiyuan Satellite Launch Center

Loading…

次のパス (今後24時間)

TLE

最新Source: Space-Track

元期: Sep 14, 2026, 04:51 UTC

1 30804U 99025AUN 26257.20259722  .00001082  00000-0  20867-3 0  9998
2 30804  98.8719 344.9542 0183903  74.4730 317.2089 14.55596493 34782

AllMySatでFENGYUN 1C DEBをリアルタイム追跡

Download on the App Store